BEIDOU-2 G7 (41586 NORAD) Tracking and Keplerian Element Data

This shows tracking and keplerian element data for the satellite.

Feedback or suggestion? Click here.




ElementValue
Catalog41586
NameBEIDOU-2 G7
Epoch Orbit1941
Epoch Day262.15500588
Epoch Year2021
RAAN68.9432
Inclination1.8981
Eccentricity0.000828
Argument of Perigee15.0646
Mean Anonmoly80.5945
Mean Motion1.00275576
Decay Rate-3.76E-06
L11 41586U 16037A 21262.15500588 -.00000376 00000-0 00000+0 0 9992
L22 41586 1.8981 68.9432 0008280 15.0646 80.5945 1.00275576 19414

Live tracking and technical data element details for BEIDOU-2 G7 (NORAD 41586). BEIDOU-2 G7 can be tracked NOW for your location showing map with azimuth and elevation plus other details from your city location.

Track the satellite on the map from your city or location and see movement details for azimuth, elevation, latitude, longitude, range, height, and movement on the map or in text.







IsCatalogInMostPopularTable: catalog: 41586, numindb: 600
Update: records affected: 1



GetName: 41586 BEIDOU-2 G7

Hit Count: updated at: Fri, 24 Sep 2021 18:26:04 GMT